Location: Cahas Mountain Overlook
(37.0833°N, 80.1000°W)
Time: 14:04:43
(UTC-04:00)

Courier 1B Rocket - Pass Details

Date: 14 December 2023
Orbit: 920 x 1201 km, 28.3° (Epoch: 13 June)

Event Time Altitude Azimuth Distance (km) Brightness Sun altitude
Rises 12:55:33 0° 264° (W) 3,874 8.3 28.9°
Reaches altitude 10° 12:58:50 10° 253° (WSW) 2,866 7.9 28.8°
Maximum altitude 13:04:23 26° 200° (SSW) 1,877 9.4 28.6°
Drops below altitude 10° 13:09:38 10° 146° (SE) 2,703 8.0 28.3°
Sets 13:12:39 0° 134° (SE) 3,611 8.3 28.2°
